SCP
0 0 0 0 0 0 0 0 0 0 0 0 0 0 0 0 0 0 0 0 0 -0 -0 -0 0 0 0 0 0 0 0 0 0 0 0 -0 -0 -0 -0 0 0 0 0 0
0 0 0 0 0 0 0 0 0 0 0 0 0 0 0 0 0 0 0 0 0 -0 -0 -0 -0 0 0 0 0 0 0 0 0 0 0 0 -0 -0 -0 0 0 0 0 0
0 0 0 0 0 0 0 0 0 0 0 0 0 0 0 0 0 0 0 0 -0 -0 -0 -0 -0 0 0 0 0 0 0 0 0 0 0 0 0 0 0 0 0 0 0 0
0 0 0 0 0 0 0 0 0 0 0 0 0 0 0 0 0 0 0 0 0 -0 -0 -0 -0 -0 0 0 0 0 0 0 0 0 0 0 0 0 0 0 0 0 0 0
0 0 0 0 0 0 0 0 0 0 0 0 0 0 0 0 0 0 0 0 0 0 -0 -0 -0 -0 0 0 0 0 0 0 0 0 0 0 0 0 0 0 0 0 0 0
0 0 0 0 0 0 0 0 0 0 0 0 0 0 0 0 0 0 0 0 0 0 0 0 0 -0 0 0 0 0 0 0 0 0 0 0 0 0 0 0 0 0 0 0
0 0 0 0 0 0 0 0 0 0 0 0 0 0 0 0 0 0 0 0 0 0 0 0 0 0 0 0 0 0 0 0 0 0 0 0 0 0 0 0 0 0 0 0
0 0 0 0 0 0 0 0 0 0 0 0 0 0 0 0 0 0 0 0 0 0 0 0 0 0 0 0 0 0 0 0 0 0 0 0 0 0 0 0 0 0 0 0
0 0 0 0 0 0 0 0 0 0 0 0 0 0 0 0 0 0 0 0 0 0 0 0 0 0 0 0 0 0 0 0 0 0 0 0 0 0 0 0 0 0 0 0
0 0 0 0 0 0 0 0 0 0 0 0 0 0 0 0 0 0 0 0 0 0 0 0 0 0 0 0 0 0 0 0 0 0 0 0 0 0 0 0 0 0 0 0
0 0 0 0 0 0 0 0 0 0 0 0 0 0 0 0 0 0 0 0 0 0 0 0 0 0 0 0 0 0 0 0 0 0 0 0 0 0 0 0 0 0 0 0
0 0 0 0 0 0 0 0 0 0 0 0 0 0 0 0 0 0 0 0 -0 -0 -0 -0 0 0 0 0 0 0 0 0 0 0 0 0 0 0 0 0 0 0 0 0
0 0 0 0 0 0 0 0 0 0 0 0 0 0 0 0 0 0 0 0 -0 -0 0 0 0 0 0 0 0 0 0 0 0 0 0 0 0 0 0 0 0 0 0 0
0 0 0 0 0 0 0 0 0 0 0 0 0 0 0 0 0 0 0 0 -0 -0 0 0 0 0 0 0 0 0 0 0 0 0 0 0 0 0 0 0 0 0 0 0
0 0 0 0 0 0 0 0 0 0 0 0 0 0 0 0 0 0 0 0 -0 0 0 0 0 0 0 0 0 0 0 0 0 0 0 0 0 0 0 0 0 0 0 0
0 0 0 0 0 0 0 0 0 0 0 0 0 0 0 0 0 0 0 -0 -0 -0 0 0 0 0 0 0 0 0 0 0 0 0 0 0 0 0 0 0 0 0 0 0
0 0 0 0 0 0 0 0 0 0 0 -0 0 0 0 0 0 0 0 -0 -0 -0 0 0 0 0 0 0 0 0 0 0 0 0 0 0 0 0 0 0 0 0 0 -0
0 0 0 0 0 0 0 0 0 0 0 0 0 0 0 0 0 0 0 0 0 -0 0 0 0 0 0 0 0 0 0 0 0 0 0 0 0 0 0 0 0 0 0 -0
0 0 0 0 0 0 0 0 0 0 0 0 0 0 0 0 0 0 0 0 0 0 0 -0 0 0 0 0 0 0 0 0 0 0 0 0 0 0 0 0 0 0 0 0
0 0 0 0 0 0 0 0 0 0 0 0 0 0 0 0 0 0 0 0 0 0 0 0 -0 0 0 0 0 0 -0 -0 0 0 0 0 0 0 0 0 0 0 0 0
0 0 0 0 0 0 0 0 0 0 0 0 0 0 0 0 0 0 0 0 0 0 0 0 -0 0 0 0 0 0 0 -0 0 0 0 0 0 0 0 0 0 0 0 0
0 0 0 0 0 0 0 0 0 0 0 0 0 0 0 0 0 0 0 0 0 0 0 0 -0 0 0 0 0 0 0 0 0 0 0 0 0 0 0 0 0 0 0 0
0 0 0 0 0 0 0 0 0 0 0 0 0 0 0 0 0 0 0 0 0 0 0 0 -0 0 0 0 0 0 0 0 0 0 0 0 0 0 0 0 0 0 0 0
0 0 0 0 0 0 0 0 0 0 0 0 0 0 0 0 0 0 0 0 0 0 -0 -0 0 0 0 0 0 0 0 0 0 0 0 0 0 0 0 0 0 0 0 0
0 0 0 0 0 0 0 0 0 0 0 0 0 0 0 0 0 0 0 0 0 -0 -0 -0 0 0 0 0 0 0 0 0 0 0 0 0 0 0 0 0 0 0 0 0
0 0 0 0 0 0 0 0 0 0 0 0 0 0 0 0 0 0 0 0 -0 -0 -0 0 0 0 0 0 0 0 0 0 0 0 0 0 0 0 0 0 0 0 0 0
Wind_Speed
2 3 2 4 4 4 2 2 4 5 3 2 6 10 12 8 4 5 4 4 5 5 3 1 1 1 2 2 3 3 3 3 3 2 2 2 1 1 1 1 2 2 2 3
3 2 4 2 2 2 2 2 4 5 2 2 5 10 9 6 4 4 4 4 5 4 2 1 0 1 2 3 3 3 3 3 2 2 2 2 2 1 1 2 2 2 2 2
5 4 1 2 2 2 2 4 4 4 5 2 5 8 5 4 3 3 3 3 3 3 2 1 1 1 1 2 3 3 3 3 3 3 3 3 3 2 1 2 2 1 1 2
3 3 1 1 2 3 4 3 3 2 2 4 2 5 7 4 5 4 3 3 3 2 1 1 2 2 2 2 2 3 3 3 3 3 3 3 3 2 1 1 1 1 1 2
3 1 2 3 3 4 4 1 0 1 1 3 2 2 9 3 4 5 4 3 3 2 1 1 2 2 1 2 2 2 3 3 3 3 3 3 2 2 1 2 2 1 1 1
3 1 2 3 1 2 2 3 3 3 2 3 3 3 8 4 4 4 3 3 2 1 1 1 0 1 1 1 2 2 3 3 3 3 3 3 3 3 3 2 1 1 0 1
4 2 1 1 2 2 2 4 4 5 3 6 1 3 9 6 4 4 3 3 2 1 0 1 0 1 1 1 2 2 3 3 3 3 3 3 3 3 4 3 2 1 0 0
1 5 3 2 3 3 2 4 5 3 4 5 2 6 8 4 3 2 2 1 1 1 1 1 2 2 2 2 2 3 3 3 3 3 2 2 3 2 2 3 2 2 1 1
4 5 1 1 1 5 4 2 3 4 0 3 6 7 9 2 3 2 2 1 1 1 1 1 1 2 2 2 2 3 3 3 3 3 2 2 3 2 2 2 2 1 1 1
5 3 2 1 2 1 3 5 4 3 2 4 6 5 5 4 4 3 2 2 3 2 2 1 1 1 2 2 2 2 3 3 3 3 3 2 2 3 3 2 2 2 2 1
2 3 3 1 4 5 3 3 3 3 3 4 4 8 5 4 3 3 4 3 3 2 2 2 1 1 0 0 1 1 1 1 2 3 3 2 2 2 2 2 3 3 2 2
3 3 3 5 3 2 4 5 6 4 4 4 3 9 3 3 3 2 3 3 2 2 2 2 1 1 1 0 0 1 1 1 2 2 2 2 2 2 2 2 3 3 3 2
4 3 1 3 2 0 2 3 4 3 3 4 5 9 2 1 2 2 2 3 2 1 1 2 1 1 1 1 1 1 1 1 1 1 2 2 2 3 3 3 3 3 3 2
3 3 6 8 5 3 4 4 4 5 4 6 9 9 8 5 4 4 3 4 3 2 2 2 2 2 2 1 1 1 1 1 1 1 2 2 2 3 3 3 2 3 3 3
3 3 5 6 5 4 7 8 8 9 9 9 9 9 10 7 5 5 4 3 3 3 3 3 3 2 2 2 2 2 2 2 1 1 2 3 2 2 2 2 2 2 2 3
1 2 2 4 4 5 8 9 10 10 9 10 9 12 7 5 4 4 4 3 3 4 4 4 3 3 3 3 3 2 2 2 2 2 2 2 2 1 2 2 2 2 2 2
2 3 1 4 3 4 9 9 10 7 7 8 10 9 3 3 5 6 5 4 5 5 4 4 4 4 4 4 3 3 3 2 2 2 2 2 2 2 2 2 2 2 2 2
5 4 2 2 1 8 7 3 6 6 6 7 6 5 4 5 6 5 4 4 5 5 4 4 4 4 4 3 3 3 2 2 2 2 2 2 2 2 2 1 2 2 2 2
6 6 4 3 4 9 7 3 4 5 6 5 7 6 3 2 3 4 3 3 4 4 4 4 4 3 2 2 2 2 2 2 2 3 3 3 3 3 3 3 3 3 2 3
3 3 4 4 5 8 6 2 2 2 5 3 4 4 3 0 1 5 3 3 4 3 3 2 2 1 1 2 1 1 2 2 3 4 3 3 3 3 4 4 3 2 2 3
3 3 6 6 7 9 5 1 3 3 5 2 2 3 2 3 5 4 3 3 3 3 3 2 2 1 2 2 0 1 2 3 4 3 3 2 3 3 4 3 3 3 3 3
6 5 6 5 6 9 1 2 3 4 2 1 1 1 2 3 4 3 3 3 3 3 3 2 2 2 2 1 1 2 3 4 3 2 3 3 3 3 2 3 3 3 3 3
5 5 4 6 6 3 1 2 3 2 2 2 2 2 2 3 4 4 3 3 3 3 2 2 1 2 3 2 1 3 4 3 2 3 3 3 3 2 3 3 3 2 2 3
4 2 2 4 6 4 4 3 4 3 3 3 3 3 2 3 4 4 3 3 3 3 3 2 2 2 3 3 3 3 4 3 3 3 3 2 2 3 2 2 2 3 3 3
5 3 3 6 6 4 4 3 4 3 3 3 3 3 3 3 4 3 3 3 3 3 3 2 2 3 4 4 4 4 3 2 3 3 3 2 2 2 2 2 3 4 4 5
4 6 6 7 5 4 5 4 3 4 5 4 3 3 3 2 3 3 3 3 3 3 3 3 3 3 4 4 4 4 3 2 2 3 2 2 2 2 2 2 3 4 5 7
Wind_Direction
56 79 209 223 208 209 186 212 267 271 286 300 266 276 285 294 288 277 270 270 270 262 261 235 222 182 145 142 148 148 132 124 126 123 131 132 134 119 86 82 119 126 132 131
54 253 240 217 192 173 185 241 269 289 313 290 292 285 280 282 268 260 256 257 260 271 286 287 240 127 148 164 159 149 146 133 136 130 132 133 132 125 113 95 72 98 122 131
189 238 216 161 164 171 237 220 242 274 324 344 326 309 303 299 302 303 285 263 264 255 243 242 220 190 156 171 173 164 158 137 134 125 111 93 80 69 68 71 60 55 99 113
232 258 165 164 214 179 255 241 227 266 339 312 15 305 296 302 315 313 309 305 292 284 250 224 205 205 198 193 173 153 146 135 130 127 134 137 135 143 176 126 107 66 77 97
255 227 188 213 229 180 219 306 264 287 204 301 311 241 286 317 310 301 295 292 298 295 285 240 206 204 195 159 142 141 133 132 130 135 145 137 125 126 118 100 97 72 56 78
252 257 205 212 230 173 152 54 37 40 66 287 239 196 280 266 255 282 283 284 289 291 320 319 5 116 97 97 120 141 142 146 143 143 142 142 148 145 133 121 116 76 51 61
314 294 267 139 87 41 88 83 21 355 353 260 237 212 252 261 256 251 263 273 282 295 302 293 312 165 165 165 166 160 153 161 157 153 159 163 169 165 163 156 148 170 191 214
239 281 240 196 180 175 174 143 157 216 249 285 297 243 257 276 286 280 277 277 284 298 282 246 224 210 210 197 178 170 168 175 168 166 176 169 173 176 173 164 160 180 195 214
188 254 310 214 202 148 142 177 164 137 207 284 273 282 299 305 325 339 341 339 299 297 287 268 236 203 199 200 199 189 183 182 181 181 176 176 180 179 176 164 158 180 191 196
167 239 284 311 76 42 151 146 116 137 191 267 289 274 259 283 290 311 317 295 293 302 303 293 264 226 214 205 200 190 193 195 191 180 183 188 188 188 178 165 178 189 200 196
158 176 299 329 195 185 138 148 143 148 178 186 269 273 231 230 250 252 267 276 274 285 289 288 285 271 280 182 178 181 194 194 198 189 183 180 187 187 176 185 196 196 203 196
167 142 241 249 248 188 180 179 156 172 225 202 219 269 275 231 257 253 272 288 286 277 288 304 307 342 21 66 201 202 208 208 219 198 180 185 182 178 184 199 205 197 201 207
152 142 325 330 336 18 217 198 181 155 149 186 210 262 301 329 328 311 293 295 296 283 299 324 335 317 285 240 222 218 227 233 234 186 175 186 190 190 201 210 209 201 203 209
138 172 194 217 234 201 239 229 194 168 195 223 229 256 290 301 308 308 300 288 281 266 269 287 290 286 281 270 252 246 252 239 212 179 182 205 212 207 209 210 209 210 207 209
117 219 231 251 262 240 242 238 215 213 214 221 244 246 263 270 275 274 271 278 281 282 277 265 263 267 270 267 262 248 248 244 219 197 204 223 223 212 207 211 216 215 214 223
126 219 256 272 255 249 261 250 226 229 229 237 257 265 258 265 277 280 273 263 265 274 275 269 261 259 255 248 246 246 247 239 214 215 227 222 199 197 209 222 219 223 233 234
192 172 202 267 295 307 264 230 207 212 212 202 230 249 268 274 268 263 260 256 254 263 267 267 265 255 250 244 235 233 237 233 219 228 232 218 204 210 223 225 218 226 238 241
185 176 195 252 347 245 248 213 191 206 234 219 235 256 246 250 268 270 255 243 258 268 270 268 263 261 257 243 236 233 226 224 227 230 231 225 216 226 231 230 239 241 232 231
193 180 189 196 240 272 282 237 180 198 260 225 230 254 262 288 327 297 262 241 251 259 264 262 257 256 257 254 235 207 223 230 235 235 236 232 218 219 228 236 243 246 241 247
159 172 183 196 225 245 251 223 180 134 275 244 209 233 248 86 304 279 295 299 290 292 293 291 298 304 292 282 228 197 236 239 244 245 242 236 222 221 232 239 246 251 242 248
153 187 205 214 236 260 262 254 119 176 254 283 203 212 202 210 228 261 299 309 303 303 306 318 339 326 284 277 210 234 250 254 258 258 255 248 231 229 234 239 245 243 247 253
187 189 201 193 221 252 272 118 180 233 287 288 261 248 237 254 278 294 298 298 310 319 325 334 339 320 308 288 231 253 264 267 271 262 259 256 249 246 241 234 248 241 233 245
211 202 201 206 227 276 240 224 263 252 253 270 266 278 270 282 284 292 295 302 308 307 308 308 300 305 310 301 253 254 270 277 278 270 266 264 262 255 238 227 236 245 229 235
255 220 209 254 266 277 279 286 295 285 263 274 275 275 259 263 275 285 290 297 302 304 301 299 304 301 300 299 283 263 273 277 271 269 270 264 257 263 256 240 228 229 230 233
234 198 229 255 273 298 286 281 289 295 293 293 291 277 254 251 268 265 277 286 288 293 294 289 279 280 285 292 290 284 275 262 261 263 262 259 254 252 259 259 241 237 235 231
215 202 207 240 239 234 264 269 280 278 278 278 279 288 284 256 260 269 274 278 283 289 293 291 283 279 282 285 286 286 273 250 247 266 265 256 253 256 254 268 290 270 260 265